Location: Amsterdam
(30.7274°N, 84.4357°W)
Time: 03:12:25
(UTC+00:00)

Courier 1B Rocket - Pass Details

Date: 13 February 2026
Orbit: 920 x 1201 km, 28.2° (Epoch: 7 March)

Event Time Altitude Azimuth Distance (km) Brightness Sun altitude
Rises 07:03:58 0° 275° (W) 3,839 - -66.0°
Reaches altitude 10° 07:06:43 10° 270° (W) 2,925 - -65.5°
Maximum altitude 07:13:39 49° 197° (SSW) 1,428 - -64.4°
Drops below altitude 10° 07:20:59 10° 125° (SE) 3,090 - -63.1°
Sets 07:23:58 0° 120° (ESE) 4,071 - -62.6°
